Other Public Products
Issued by NWS Grand Forks, ND

Home | Current Version | Previous Version | Text Only | Print | Product List | Glossary On
Versions: 1 2 3 4 5 6 7 8 9 10 11 12 13 14 15 16 17 18 19 20 21 22 23 24 25 26 27 28 29 30 31 32 33 34 35 36 37 38 39 40 41 42 43 44 45 46 47 48 49 50
000
FPUS83 KFGF 312031
OPUFGF
PRAIRIE TO PINES WEATHER ROUNDUP
NATIONAL WEATHER SERVICE EASTERN NORTH DAKOTA/GRAND FORKS ND
300 PM CDT THU JUL 31 2014

 **SATELLITE DATA USED TO AUGMENT SKY COVER AT AUTOMATED STATIONS**
 *****  WEATHER ACROSS EASTERN NORTH DAKOTA  *****

CITY           SKY/WX    TMP DP  RH WIND       PRES   REMARKS
GRAND FORKS    MOSUNNY   83  61  47 NW7       30.01S
GRAND FORKS AF SUNNY     82  59  46 NE6       30.02S
GRAND CITY NWS   N/A     79 N/A N/A N5          N/A
BUXTON           N/A     85  61  43 W3          N/A
DEVILS LAKE    SUNNY     81  55  41 NW9       30.04F
FARGO          SUNNY     83  57  41 N8        30.01F
WAHPETON ARPT  PTCLDY    81  52  36 N3        30.03S
$$

 *****  WEATHER ACROSS CENTRAL AND WESTERN NORTH DAKOTA  *****

CITY           SKY/WX    TMP DP  RH WIND       PRES   REMARKS
JAMESTOWN      MOSUNNY   81  54  39 VRB6      30.06S
BISMARCK       SUNNY     85  53  33 SW9       30.08S
MINOT          SUNNY     80  52  37 NE6       30.07F
MINOT AFB      SUNNY     80  58  46 SW6       30.07S
GARRISON         N/A     81  59  47 VRB3      30.08F
WILLISTON      MOSUNNY   84  58  40 S8        30.05F
DICKINSON      SUNNY     85  51  31 NW7       30.08S
HETTINGER      MOSUNNY   86  50  28 MISG      30.10F
$$

 *****  OTHER OBSERVATIONS NORTHEAST NORTH DAKOTA  *****

CITY           SKY/WX    TMP DP  RH WIND       PRES   REMARKS
WALHALLA       FAIR      81  64  57 N5          N/A
LANGDON        FAIR      82  55  39 NW10      30.06S
CAVALIER       FAIR      81  59  47 NW5       30.02R
GRAFTON        FAIR      82  59  44 N5        30.01S
CANDO          FAIR      81  57  44 N8        30.06F
FORT TOTTEN    NOT AVBL
ROLLA            N/A     77  55  47 N7        30.09S
RUGBY          FAIR      79  59  50 W6        30.06S
 ***** THE ABOVE OBSERVATIONS ARE NON NWS ARE NOT QUALITY
        CONTROLLED AND MAY MIS-REPORT RAIN FOR SNOW...
$$

 *****  OTHER OBSERVATIONS SOUTHEAST NORTH DAKOTA *****

CITY           SKY/WX    TMP DP  RH WIND       PRES   REMARKS
COOPERSTOWN    NOT AVBL
VALLEY CITY    FAIR      82  55  39 N10G17    30.05S
OAKES          NOT AVBL
GWINNER        CLEAR     82  57  42 N8        30.06S
SHEYENNE NWR     N/A     84  58  40 NW6       29.95S
BUFFALO          N/A     82  50  32 N8          N/A
WYNDMERE       NOT AVBL
 ***** THE ABOVE OBSERVATIONS ARE NON NWS ARE NOT QUALITY
       CONTROLLED AND MAY MIS-REPORT RAIN FOR SNOW...
$$

  *****  WEATHER ACROSS NORTHERN MINNESOTA  *****

CITY           SKY/WX    TMP DP  RH WIND       PRES   REMARKS
FLAG ISLAND    SUNNY     75  54  46 N8        29.99S
WARROAD        SUNNY     79  59  50 E6        30.01S
ROSEAU           N/A     81  57  44 N3        30.00F
HALLOCK        SUNNY     81  61  50 N8        30.00S
THF RVR FALLS  SUNNY     79  57  47 NW9       30.02S
HALSTAD          N/A     83  55  38 N5          N/A
FOSSTON        SUNNY     77  61  57 NW7       30.03S
BAUDETTE       SUNNY     77  53  43 NW8       30.01S
WASKISH        SUNNY     79  63  57 SW6       30.00F
CROOKSTON      SUNNY     81  63  54 NW8       30.02S
$$
  *****  WEATHER ACROSS CENTRAL AND WEST MINNESOTA  *****

CITY           SKY/WX    TMP DP  RH WIND       PRES   REMARKS
BEMIDJI        SUNNY     79  56  46 NW10      30.01S
PARK RAPIDS    MOSUNNY   79  57  46 NW13      30.02S
WADENA         MOSUNNY   79  57  47 NW8       30.03S
DETROIT LAKES  SUNNY     79  54  41 NW9       30.05S
MOORHEAD       SUNNY     82  55  39 N5        30.03S
FERGUS FALLS   MOSUNNY   81  55  41 NW6       30.02F
ELBOW LAKE     FAIR      78  57  48 CALM      30.04S
MORRIS MN      SUNNY     82  57  42 NW6       30.04S
STAPLES        MOSUNNY   81  54  39 W8        30.02S
WHEATON        SUNNY     79  57  47 CALM      30.06S
$$
  *****  WEATHER ELSEWHERE ACROSS MINNESOTA  *****

CITY           SKY/WX    TMP DP  RH WIND       PRES   REMARKS
DULUTH         MOSUNNY   78  54  43 NW8       29.98S
INTRNTL FALLS  SUNNY     78  53  41 N8        29.99S
ELY            SUNNY     73  48  40 NW10G17   29.97F
CLOQUET        SUNNY     79  52  38 NW8       29.98S
BRAINERD       SUNNY     81  57  43 W14       30.01S
HIBBING        SUNNY     80  53  39 N12       29.99S
ALEXANDRIA     SUNNY     78  53  41 VRB7      30.06S
SAINT CLOUD    PTSUNNY   85  54  34 NW8       30.02S
MINNEAPOLIS    FAIR      83  50  31 NW8       30.02S
$$

  *****  WEATHER ACROSS SOUTH DAKOTA  *****

CITY           SKY/WX    TMP DP  RH WIND       PRES   REMARKS
SIOUX FALLS    LGT RAIN  76  59  55 VRB6      30.07S
BROOKINGS      NOT AVBL
WATERTOWN      PTSUNNY   80  53  39 W8        30.07S
HURON          MOSUNNY   83  53  35 NE9       30.05F
SISSETON         N/A     81  57  43 N8        30.04S
ABERDEEN       PTSUNNY   79  53  40 E3        30.06S
MITCHELL       MOSUNNY   80  61  52 CALM      30.07F
PIERRE         PTSUNNY   83  55  38 CALM      30.05S
MOBRIDGE       SUNNY     83  55  38 CALM      30.04F
RAPID CITY     SUNNY     85  52  32 CALM      30.15F
$$

  *****  SOME WEATHER IN NEARBY STATES *****

CITY           SKY/WX    TMP DP  RH WIND       PRES   REMARKS
GLASGOW MT     SUNNY     95  39  14 VRB3      29.98F HX  91
GREAT FALLS MT SUNNY     92  37  14 W8G22     30.10F
CHEYENNE WY    MOSUNNY   75  42  30 VRB6      30.32S
SCOTTSBLUFF NE SUNNY     85  46  25 VRB6      30.19F
OMAHA NE       CLOUDY    84  54  35 S7        30.05F
DES MOINES IA  MOSUNNY   82  55  39 NW7       30.07S
DAVENPORT IA   MOSUNNY   79  61  53 W7        30.07S
CHICAGO IL     MOSUNNY   84  53  34 W17G25    30.02F
EAU CLAIRE WI  SUNNY     81  56  42 W14       29.99F
LA CROSSE WI   SUNNY     82  56  40 W14       30.01F
$$

  *****  SOME NATIONAL WEATHER *****

CITY           SKY/WX    TMP DP  RH WIND       PRES   REMARKS
LA GUARDIA NY  PTSUNNY   80  61  52 S16G22    30.08S
RALEIGH NC     CLOUDY    81  65  58 E7        30.13F
ATLANTA GA     PTSUNNY   84  65  52 NE10      30.04F
NEW ORLEANS LA PTSUNNY   91  64  40 NE8       30.01F HX  92
OKLAHOMA CITY  PTSUNNY   75  66  73 N10       30.08F
ALBUQUERQUE NM MOSUNNY   77  58  51 VRB3      30.23F
SALT LAKE CITY MOSUNNY   83  50  31 NW10      30.15F
LOS ANGELES CA MOSUNNY   74  63  68 W12       29.92F
BOISE ID       SUNNY     92  46  20 VRB5      30.08F
SEATTLE WA     MOSUNNY   80  54  40 NW8       30.10F
$$

*** WEATHER ACROSS MANITOBA...SASKATCHEWAN AND ONTARIO ***
                ***ONTARIO***

CITY           SKY/WX    TMP DP  RH WIND       PRES   REMARKS
GERALDTON      CLOUDY    59  54  82 NW5       29.92R
THUNDER BAY    PTSUNNY   77  50  38 W12G17    29.91S
SIOUX LOOKOUT  PTSUNNY   73  48  40 N10       29.98S
TORONTO        MOSUNNY   77  55  47 W13G22    30.00S
BIG TROUT LK   CLOUDY    68  50  52 NW8       29.95F
PICKLE LAKE    PTSUNNY   66  50  55 N7        29.97S
DRYDEN         SUNNY     73  46  38 NW7       29.99
KENORA         PTSUNNY   75  50  41 NW8       30.02S
$$
                *** MANITOBA***

CITY           SKY/WX    TMP DP  RH WIND       PRES   REMARKS
BRANDON        PTSUNNY   81  57  44 N12       30.06S
DAUPHIN        SUNNY     81  59  47 S3        30.04F
ISLAND LAKE    MOSUNNY   73  48  40 N2        30.06S
PILOT MOUND      N/A     79  55  44 N9          N/A
THE PAS        TSTM      82  54  36 NW6       29.99
THOMPSON       PTSUNNY   79  55  44 S7        30.04F
WINNIPEG       MOSUNNY   81  57  44 NW6       30.01F
LYNN LAKE      PTSUNNY   86  54  32 SE7       29.99F
CHURCHILL      MOSUNNY   70  55  60 E12       30.06F
GILLAM         CLOUDY    73  46  38 N3        30.07S
$$
                ***SASKATCHEWAN***

CITY           SKY/WX    TMP DP  RH WIND       PRES   REMARKS
ESTEVAN        MOSUNNY   81  59  47 SE7       30.08S
KINDERSLEY     PTSUNNY   81  66  61 NE5       30.06F
LLOYDMINSTER   PTSUNNY   81  59  47 NE9       30.09F
PRINCE ALBERT  MOSUNNY   81  61  50 VRB2      30.07S
REGINA         PTSUNNY   82  61  47 SE13G18   30.05R


USA.gov is the U.S. government's official web portal to all federal, state and local government web resources and services.